Location: Berbisdorf
(50.7638°N, 12.9442°E)
Time: 02:47:21
(UTC+00:00)

BREEZE-M DEB (TANK) - Pass Details

Date: 01 October 2020
Orbit: 333 x 12040 km, 49.7° (Epoch: 19 October)

Event Time Altitude Azimuth Distance (km) Brightness Sun altitude
Rises 23:43:35 0° 120° (ESE) 16,904 9.5 -41.6°
Reaches altitude 10° 00:16:20 10° 104° (ESE) 16,003 9.5 -39.7°
Maximum altitude 00:43:57 14° 87° (E) 13,992 9.5 -37.6°
Drops below altitude 10° 01:04:24 10° 69° (ENE) 12,006 9.5 -35.6°
Sets 01:19:03 0° 52° (NE) 10,678 9.7 -34.1°
